Flight Track Log - Related Links

Times and Time Zones

All times are in EST time to prevent confusion due to time zone crossing. See the RPA4250 flight status page for this flight to view local times or setup timezone preferences in your user account.

Time Position Orientation Groundspeed Altitude Reporting Facility
EST Latitude Longitude Course Direction KTS MPH feet Rate Location/Type
07:00PM 41.9500 -88.0000 251° West 184 212 3,200  Level Chicago TRACON
07:01PM 41.9333 -88.0667 251° West 245 282 5,000 2,172 Climbing Chicago TRACON
07:02PM 41.9253 -88.1572 263° West 256 295 7,400 2,593 Climbing Chicago Center
07:03PM 41.9153 -88.2636 263° West 272 313 10,100 2,516 Climbing Chicago Center
07:04PM 41.8925 -88.3650 253° West 284 327 12,600 2,371 Climbing Chicago Center
07:05PM 41.8692 -88.4781 255° West 294 338 15,000 1,597 Climbing Chicago Center
07:06PM 41.8458 -88.5850 254° West 300 345 15,900 919 Climbing Chicago Center
07:07PM 41.8169 -88.7167 254° West 347 399 16,900 1,113 Climbing Chicago Center
07:08PM 41.7914 -88.8422 255° West 364 419 18,200 1,452 Climbing Chicago Center
07:09PM 41.7758 -88.9750 261° West 363 418 19,900 1,355 Climbing Chicago Center
07:10PM 41.7578 -89.1119 260° West 374 430 21,000 1,008 Climbing Chicago Center
07:11PM 41.7175 -89.2536 249° West 416 479 22,000 1,056 Climbing Chicago Center
07:12PM 41.6561 -89.4200 244° Southwest 417 480 23,200 1,065 Climbing Chicago Center
07:13PM 41.6064 -89.5533 244° Southwest 431 496 24,200 968 Climbing Chicago Center
07:14PM 41.5514 -89.7017 244° Southwest 444 511 25,200 919 Climbing Chicago Center
07:15PM 41.4931 -89.8489 242° Southwest 450 518 26,100 1,065 Climbing Chicago Center
07:16PM 41.4183 -90.0267 241° Southwest 459 528 27,400 919 Climbing Chicago Center
07:17PM 41.3572 -90.1756 241° Southwest 461 531 28,000 290 Climbing Chicago Center
07:19PM 41.2931 -90.3292 241° Southwest 475 547 28,000  Level Chicago Center
07:20PM 41.2247 -90.4900 241° Southwest 498 573 28,000  Level Chicago Center
07:21PM 41.1586 -90.6469 241° Southwest 492 566 28,000  Level Chicago Center
07:22PM 41.0789 -90.8333 240° Southwest 488 562 28,000  Level Chicago Center
07:23PM 41.0125 -90.9911 241° Southwest 490 564 28,000  Level Chicago Center
07:24PM 40.9447 -91.1456 240° Southwest 489 563 28,000  Level Chicago Center
07:25PM 40.8853 -91.2847 241° Southwest 435 501 28,000  Level Chicago Center
07:26PM 40.8175 -91.4433 241° Southwest 433 498 28,000  Level Chicago Center
07:27PM 40.7511 -91.5764 237° Southwest 437 503 28,000  Level Chicago Center
07:28PM 40.6733 -91.7047 231° Southwest 450 518 28,000 -167 Level Chicago Center
07:29PM 40.6075 -91.8114 231° Southwest 461 531 27,700 -722 Descending Kansas City Center
07:30PM 40.5411 -91.9525 238° Southwest 462 532 26,700 -968 Descending Kansas City Center
07:31PM 40.4794 -92.0919 240° Southwest 451 519 25,700 -960 Descending Kansas City Center
07:32PM 40.4150 -92.2286 238° Southwest 446 513 24,700 -1,008 Descending Kansas City Center
07:33PM 40.3469 -92.3750 239° Southwest 441 507 23,600 -1,065 Descending Kansas City Center
07:34PM 40.2814 -92.5144 238° Southwest 431 496 22,500 -1,113 Descending Kansas City Center
07:35PM 40.2142 -92.6608 239° Southwest 426 490 21,300 -1,065 Descending Kansas City Center
07:36PM 40.1561 -92.7817 238° Southwest 415 478 20,300 -1,016 Descending Kansas City Center
07:37PM 40.0906 -92.9194 238° Southwest 404 465 19,200 -968 Descending Kansas City Center
07:38PM 40.0381 -93.0333 239° Southwest 398 458 18,300 -871 Descending Kansas City Center
07:39PM 39.9792 -93.1531 237° Southwest 397 457 17,400 -968 Descending Kansas City Center
07:40PM 39.9117 -93.2922 235° Southwest 385 443 16,300 -944 Descending Kansas City Center
07:41PM 39.9020 -93.2983 235° Southwest  Level FlightAware Approximate
07:43PM 39.7489 -93.6292 238° Southwest 368 423 13,500  Level Kansas City Center
07:44PM 39.6906 -93.7489 238° Southwest 364 419 12,600 -726 Descending Kansas City Center
07:45PM 39.6411 -93.8533 238° Southwest 359 413 12,000 -581 Descending Kansas City Center
07:46PM 39.5858 -93.9644 237° Southwest 325 374 11,400 -968 Descending Kansas City Center
07:47PM 39.5461 -94.0439 237° Southwest 280 322 10,000 -1,536 Descending Kansas City Center
07:48PM 39.5169 -94.1453 250° West 272 313 8,200 -960 Descending Kansas City Center
07:49PM 39.5028 -94.2336 258° West 264 304 8,000 -339 Descending Kansas City Center
07:50PM 39.4844 -94.3356 257° West 264 304 7,500 -968 Descending Kansas City Center
07:51PM 39.4711 -94.4208 259° West 257 296 6,000 -1,597 Descending Kansas City Center
07:52PM 39.4572 -94.5197 260° West 253 291 4,200 -1,355 Descending Kansas City Center
07:53PM 39.4356 -94.5958 250° West 239 275 3,200 -581 Descending Kansas City Center
07:54PM 39.4039 -94.6567 236° Southwest 175 201 3,000 -387 Descending Kansas City Center
07:55PM 39.3689 -94.6836 211° Southwest 155 178 2,400 -677 Descending Kansas City Center
07:57PM 39.3325 -94.6939 192° South 124 143 1,600 -677 Descending Kansas City Center
07:58PM 39.2981 -94.7025 191° South 123 142 1,000 -581 Descending Kansas City Center

Login

Don't have an account? Register now (free) for customized features, flight alerts, and more!